Regional Weather Roundup
Issued by NWS

Home | Current Version | Previous Version | Graphics & Text | Print | Product List | Glossary On
Versions: 1 2 3 4 5 6 7 8 9 10 11 12 13 14 15 16 17 18 19 20 21 22 23 24 25 26 27 28 29 30 31 32 33 34 35 36 37 38 39 40 41 42 43 44 45 46 47 48 49 50
000
ASUS43 KLOT 180200
RWRIL

ILLINOIS REGIONAL WEATHER ROUNDUP
NATIONAL WEATHER SERVICE CHICAGO/ROMEOVILLE IL
900 PM CDT WED SEP 17 2014

NOTE: "FAIR" INDICATES FEW OR NO CLOUDS BELOW 12,000 FEET WITH NO
SIGNIFICANT WEATHER AND/OR OBSTRUCTIONS TO VISIBILITY.

* THESE STATIONS ARE NOT UNDER NWS QUALITY CONTROL. THEY ALSO MAY NOT
  REPORT WEATHER SUCH AS PRECIPITATION OR FOG.

ILZ001-002-007-009-015-016-024-180300-
NORTHWEST ILLINOIS

CITY           SKY/WX    TMP DP  RH WIND       PRES   REMARKS
MOLINE         CLEAR     55  51  86 CALM      30.00R
STERLING*      CLEAR     54  48  82 CALM      30.01R
$$

ILZ003-004-008-010-011-017-018-180300-
NORTH CENTRAL ILLINOIS

CITY           SKY/WX    TMP DP  RH WIND       PRES   REMARKS
ROCKFORD       CLEAR     58  52  80 CALM      30.03R
FREEPORT*      CLEAR     52  50  93 CALM      30.03R
ROCHELLE*      CLEAR     54  50  85 CALM      30.01R
$$

ILZ005-006-012>014-019>023-180300-
NORTHEAST ILLINOIS

CITY           SKY/WX    TMP DP  RH WIND       PRES   REMARKS
CHICAGO-OHARE  CLEAR     62  46  55 CALM      30.01R
CHICAGO-MIDWAY CLEAR     63  50  62 E3        30.01R
AURORA         CLEAR     53  48  83 NE3       30.01R
LANSING*       CLEAR     57  49  75 E3        30.01R
WAUKEGAN       CLEAR     50  48  93 CALM      30.01R
DUPAGE AIRPORT CLEAR     57  48  72 E3        30.01R
WHEELING       CLEAR     56  50  80 CALM      30.02R
NORTHERLY ISL    N/A     61  53  75 E5          N/A
$$

LMZ740>746-180300-
SOUTHERN LAKE MICHIGAN

STATION/POSITION SKY/WX   TEMP    WIND        PRES    VSBY  WAVE
                          AIR SEA DIR/SP/G                  HT/PER
                          (F)     (DEG/KT/KT) (MB)    (MI)  (FT/S)
SOUTHERN BUOY              62 64  160/  4/  6 1016.0R         0
WAUKEGAN HARBOR            59      CALM  /  2   N/A
HARRISON CRIB              62      90/  9/ 10   N/A
BURNHAM HARBOR             61     100/  4/  7   N/A
CALUMET HARBOR             63      80/  5/  7 1014.9R
MICHIGAN CITY              60      70/  7/  9   N/A
MICHIGAN CITY 6N           62 65   90/  6/  8   N/A           1
ST. JOSEPH                 62 66   60/  4/  6   N/A           0
$$

ILZ025>027-034>036-040-047-049-050-058-095>099-180300-
WEST-CENTRAL ILLINOIS

CITY           SKY/WX    TMP DP  RH WIND       PRES   REMARKS
QUINCY         CLOUDY    62  56  80 S6        29.98R
GALESBURG*     CLEAR     55  51  83 CALM      30.00R
MACOMB*        PTCLDY    55  54  94 E6        30.02R
$$

ILZ028>032-037-038-041>044-048-051>054-059>061-180300-
CENTRAL ILLINOIS

CITY           SKY/WX    TMP DP  RH WIND       PRES   REMARKS
DECATUR        CLOUDY    60  55  83 SW6       30.02R
PEORIA         CLOUDY    60  54  80 CALM      30.01R
SPRINGFIELD    CLOUDY    59  53  80 CALM      30.02R
TAYLORVILLE    NOT AVBL
$$

ILZ033-039-045-046-055>057-062-063-180300-
EAST-CENTRAL ILLINOIS

CITY           SKY/WX    TMP DP  RH WIND       PRES   REMARKS
CHAMPAIGN      CLOUDY    58  53  84 S5        30.01R
MATTOON        CLOUDY    57  52  83 W3        30.01R
$$

ILZ079-100>102-180300-
SOUTHWEST ILLINOIS

CITY           SKY/WX    TMP DP  RH WIND       PRES   REMARKS
ALTON          CLOUDY    61  55  82 CALM      29.98S
BELLEVILLE     CLOUDY    62  59  91 N2        29.97R
CAHOKIA*       CLOUDY    63  57  81 NE3       29.97R
SPARTA*        CLOUDY    61  59  91 CALM      29.97R
$$

ILZ064>066-069>071-074>076-080>082-084>086-088>090-092>094-180300-
SOUTH-CENTRAL ILLINOIS

CITY           SKY/WX    TMP DP  RH WIND       PRES   REMARKS
CARBONDALE     CLOUDY    63  58  83 CALM      29.96S
MARION         CLOUDY    64  59  82 S3        29.97S
MT. VERNON     CLOUDY    63  55  77 NE5       29.98R
SALEM*         CLOUDY    63  59  88 NE6       29.99R
$$

ILZ067-068-072-073-078-083-087-091-180300-
SOUTHEAST ILLINOIS

CITY           SKY/WX    TMP DP  RH WIND       PRES   REMARKS
LAWRENCEVILLE  CLOUDY    60  57  89 NE7       30.00R
ROBINSON*      FOG       57  57  98 CALM      30.02R VSB 1
$$

ABBREVIATIONS USED IN REMARKS
   TC - TEMPERATURE IN CELSIUS
  WCI - WIND CHILL INDEX
   HX - HEAT INDEX
  VSB - VISIBILITY
$$




USA.gov is the U.S. government's official web portal to all federal, state and local government web resources and services.